Location: Kolin
(50.0330°N, 15.2000°E)
Time: 20:25:33
(UTC+02:00)

Gurwin Techsat 1B - Visible Passes

Search period start: 13 August 2022 00:00
Search period end: 23 August 2022 00:00
Orbit: 812 x 813 km, 98.8° (Epoch: 13 August)

Date Brightness Start Highest point End Pass type
(mag) Time Alt. Az. Time Alt. Az. Time Alt. Az.
13 Aug 10.5 02:34:10 10° NE 02:38:15 22° E 02:41:50 12° SE visible
13 Aug 8.7 04:13:21 10° N 04:18:37 64° WNW 04:23:01 15° SSW visible
14 Aug 11.0 02:12:11 10° NE 02:14:59 14° E 02:17:47 10° ESE visible
14 Aug 8.6 03:50:20 10° NNE 03:55:42 86° ESE 03:59:43 18° SSW visible
15 Aug 9.1 03:27:26 10° NNE 03:32:43 57° ESE 03:36:24 19° S visible
15 Aug 9.8 05:07:56 10° N 05:12:18 27° WNW 05:16:40 10° WSW visible
16 Aug 9.7 03:04:41 10° NNE 03:09:38 38° E 03:13:05 18° SSE visible
16 Aug 9.4 04:44:40 10° N 04:49:34 38° WNW 04:54:17 11° SW visible
17 Aug 10.3 02:42:07 10° NE 02:46:30 25° E 02:49:47 14° SE visible
17 Aug 8.8 04:21:32 10° N 04:26:44 56° WNW 04:30:59 15° SW visible
18 Aug 10.9 02:19:54 10° NE 02:23:15 17° E 02:26:28 10° SE visible
18 Aug 8.6 03:58:29 10° NNE 04:03:51 83° WNW 04:07:40 20° SSW visible
19 Aug 11.2 01:59:04 10° ENE 01:59:56 10° E 02:00:48 10° E visible
19 Aug 8.9 03:35:33 10° NNE 03:40:53 66° ESE 03:44:21 22° S visible
19 Aug 10.0 05:16:13 10° N 05:20:21 24° WNW 05:24:29 10° WSW visible
20 Aug 9.5 03:12:44 10° NNE 03:17:50 43° E 03:21:02 21° SSE visible
20 Aug 9.5 04:52:54 10° N 04:57:38 33° WNW 05:02:14 11° SW visible
21 Aug 10.1 02:50:05 10° NE 02:54:43 29° E 02:57:43 18° SE visible
21 Aug 9.0 04:29:43 10° N 04:34:51 49° WNW 04:38:55 16° SW visible
22 Aug 10.7 02:27:44 10° NE 02:31:31 19° E 02:34:25 13° SE visible
22 Aug 8.6 04:06:39 10° NNE 04:11:59 73° WNW 04:15:36 21° SSW visible
